OpenBCM V1.08-5-g2f4a (Linux)

Packet Radio Mailbox

IZ3LSV

[San Dona' di P. JN]

 Login: GUEST





  
I0OJJ  > KEPS     21.10.25 01:28l 304 Lines 14414 Bytes #123 (0) @ AMSAT
BID : ORB25294.1
Read: GUEST
Subj: 2Line Orbital Elements 25294.AMSAT
Path: IZ3LSV<IK6IHL<IK7NXU<HB9ON<DK0WUE<ZL2BAU<VK3AT<VE3QBZ<VE3CGR<IR0AAB<
      I0OJJ
Sent: 251021/0021z @:I0OJJ.ITA.EU [Rome] obcm1.08-11-2-gbfe9
From: I0OJJ @ I0OJJ.ITA.EU (Gustavo)
To:   KEPS @ AMSAT
X-Info: This message was generated automatically


QST de W1STR

AMSAT Orbital Elements for Amateur Satellites in TLE Format
From Orbital Analysis Office
New England Sci-Tech STEM Education Center
Natick MA October 21, 2025
To all radio amateurs


These element sets describe the orbits of various satellites 
in use by the amateur radio community. For details see:
www.amsat.org/keplerian-elements-formats/

A daily update of element sets is available at:
www.amsat.org/tle/daily-bulletin.txt
or without bulletin text:
www.amsat.org/tle/dailytle.txt


AO-07
1 07530U 74089B   25293.60383672 -.00000027  00000-0  12183-3 0  9997
2 07530 101.9985 299.3063 0011975 227.8404 257.5600 12.53692642330496
UO-11
1 14781U 84021B   25293.47211676  .00003085  00000-0  32654-3 0  9990
2 14781  97.7723 257.3628 0006040 254.7859 105.2691 14.89871594221422
AO-27
1 22825U 93061C   25293.64381463  .00000249  00000-0  11209-3 0  9995
2 22825  98.7221 355.7663 0009496  84.4577 275.7689 14.30847977672748
FO-29
1 24278U 96046B   25293.61426093  .00000049  00000-0  86554-4 0  9995
2 24278  98.5519 169.8664 0349980 358.0179   1.9555 13.53257377440767
NOAA-15
1 25338U 98030A   25293.61244703  .00000295  00000-0  13882-3 0  9990
2 25338  98.5279 315.5020 0009692 335.6873  24.3849 14.27038977427124
GO-32
1 25397U 98043D   25293.60072167  .00000201  00000-0  10711-3 0  9996
2 25397  98.9870 275.5979 0001531 143.7538 216.3744 14.24354708417225
ISS
1 25544U 98067A   25293.52445067  .00016775  00000-0  30886-3 0  9998
2 25544  51.6345  45.9331 0004353 315.4174  44.6464 15.49283951534604
NO-44
1 26931U 01043C   25293.64910784  .00000334  00000-0  15584-3 0  9995
2 26931  67.0491 143.7694 0007124 273.1472  86.8815 14.31809460256155
SO-50
1 27607U 02058C   25293.57238715  .00002536  00000-0  32356-3 0  9994
2 27607  64.5521 149.8852 0068753 306.5152  52.9633 14.82107729228938
CO-55
1 27844U 03031E   25293.54572799  .00000647  00000-0  30014-3 0  9999
2 27844  98.6786 300.1303 0010018 155.5405 204.6251 14.24112851157569
CO-57
1 27848U 03031J   25293.55687546  .00000540  00000-0  25674-3 0  9999
2 27848  98.6815 300.0450 0009587 172.7233 187.4086 14.23430859157280
RS-22
1 27939U 03042A   25293.65770182  .00002550  00000-0  40742-3 0  9998
2 27939  98.3372 106.4551 0010516 312.4251 138.4543 14.72742005180286
CO-58
1 28895U 05043F   25293.13918402  .00004091  00000-0  66556-3 0  9998
2 28895  98.2682  79.3361 0013422 245.0899 114.8913 14.71567154 66434
CO-65
1 32785U 08021C   25293.63704100  .00009612  00000-0  66117-3 0  9990
2 32785  97.8014 266.0305 0011527 116.0830 244.1584 15.06072014949098
CO-66
1 32791U 08021J   25293.58820783  .00026054  00000-0  11161-2 0  9994
2 32791  97.7404 277.0190 0006270  78.5701 281.6238 15.22741560950708
RS-30
1 32953U 08025A   25293.67515826  .00000044  00000-0  24176-3 0  9999
2 32953  82.5014 144.4305 0019825 113.2269 247.0901 12.43169587789939
NOAA-19
1 33591U 09005A   25293.64446433  .00000127  00000-0  91341-4 0  9992
2 33591  98.9836 359.0073 0013497 352.1827   7.9133 14.13419652860648
SRMSAT
1 37841U 11058D   25293.65727689  .00000560  00000-0  16026-3 0  9998
2 37841  19.9720  69.2095 0011828  88.3776  29.4847 14.11483830723934
ZACUBE-1
1 39417U 13066B   25293.64490625  .00010999  00000-0  91403-3 0  9995
2 39417  97.7981 250.1710 0041645 330.6266  29.2616 14.98224316644829
Delfi-N3xt
1 39428U 13066N   25293.53119046  .00015315  00000-0  14762-2 0  9999
2 39428  97.8305 209.8082 0079030 282.7783  76.4612 14.90644860638864
GOMX-1
1 39430U 13066Q   25293.54674177  .00004069  00000-0  62560-3 0  9998
2 39430  97.6656 143.9977 0132197 126.2059 235.1456 14.68247871634735
LO-74
1 39440U 13066AA  25293.60708339  .00008493  00000-0  82997-3 0  9995
2 39440  97.8620 237.4080 0062644 100.3104 260.5185 14.91130141641259
AO-73
1 39444U 13066AE  25293.60997136  .00015026  00000-0  10545-2 0  9993
2 39444  97.7980 256.3113 0037818 299.1809  60.5635 15.04676038643572
DTUSAT-2
1 40030U 14033W   25293.62881509  .00014955  00000-0  91124-3 0  9992
2 40030  98.0702 272.1716 0008005 344.6073  15.4911 15.10461898616468
EO-80
1 40032U 14033Y   25293.57563140  .00013818  00000-0  84081-3 0  9997
2 40032  98.0579 271.5852 0005969 272.3589  87.6956 15.10541023616437
LILACSAT-2
1 40908U 15049K   25293.64470887  .00021762  00000-0  50154-3 0  9991
2 40908  97.4982 317.4596 0009829  51.5184 308.6943 15.42561501558718
IO-86
1 40931U 15052B   25151.18580175  .00001241  00000-0  78118-4 0  9996
2 40931   6.0006  24.0987 0012733 338.8432  21.1169 14.78805930523159
Horyu-4
1 41340U 16012D   25293.15169455  .00057204  00000-0  11744-2 0  9996
2 41340  30.9964 316.2259 0003139  22.6493 337.4293 15.44729612533244
Lapan A3
1 41603U 16040E   25293.63165530  .00006476  00000-0  21861-3 0  9999
2 41603  97.1424 293.1431 0011847 144.9745 215.2278 15.30945440518131
CAS-2T
1 41847U 16066G   25293.20071050  .00003647  00000-0  52032-3 0  9994
2 41847  98.4099   6.4644 0345398 137.0245 225.8489 14.43918695470158
TechnoSat
1 42829U 17042E   25293.60482828  .00008105  00000-0  60769-3 0  9993
2 42829  97.4016  96.1311 0018449 190.3781 169.7067 15.02782792450693
AO-91
1 43017U 17073E   25293.62846943  .00014364  00000-0  69190-3 0  9992
2 43017  97.5021 161.0796 0167450  72.6525 289.2940 15.07240799429239
S-Net D
1 43186U 18014G   25293.61131679  .00010346  00000-0  58218-3 0  9992
2 43186  97.5487 195.1674 0010359 119.9173 240.3088 15.13395390422480
S-Net B
1 43187U 18014H   25293.61853932  .00010713  00000-0  60295-3 0  9992
2 43187  97.5489 195.1525 0011101 116.3753 243.8619 15.13371657422487
S-Net A
1 43188U 18014J   25293.28064095  .00011516  00000-0  64745-3 0  9996
2 43188  97.5499 194.9861 0010974 117.6665 242.5681 15.13395013422434
S-Net C
1 43189U 18014K   25293.62131037  .00010312  00000-0  58047-3 0  9997
2 43189  97.5514 195.3604 0012585 111.3050 248.9526 15.13364155421038
Ten-Koh
1 43677U 18084G   25293.60037712  .00004735  00000-0  37263-3 0  9998
2 43677  98.0700 111.1234 0009120 176.4314 183.6976 15.01308760380196
PO-101
1 43678U 18084H   25293.59267237  .00005548  00000-0  46220-3 0  9990
2 43678  98.1077 114.9137 0007546 186.1601 173.9530 14.99048253380300
QO-100
1 43700U 18090A   25293.62815561  .00000000  00000-0  00000-0 0  9997
2 43700   0.0191 227.1673 0001813  21.5025  32.5643  1.00270213 25278
MinXSS-2
1 43758U 18099A   25293.61204706  .00034172  00000-0  11378-2 0  9990
2 43758  97.4880   0.3828 0011036  51.6480 308.5751 15.30997050377286
AO-95
1 43770U 18099N   25293.63563820  .00019113  00000-0  88427-3 0  9999
2 43770  97.4762 350.3601 0011442 108.0304 252.2179 15.20124977376747
SNUSat 2
1 43782U 18099AA  25293.64583686  .00014746  00000-0  74916-3 0  9990
2 43782  97.4441 345.9921 0012583  57.5205 302.7243 15.16909558376658
SnugLite
1 43784U 18099AC  25293.63577903  .00018238  00000-0  83645-3 0  9995
2 43784  97.4254 345.8574 0004391  66.7210 293.4487 15.20485733376836
ITASat 1
1 43786U 18099AE  25293.61179046  .00012849  00000-0  69073-3 0  9992
2 43786  97.4413 345.0530 0015369 105.3095 254.9837 15.14911480376586
EAGLET 1
1 43790U 18099AJ  25293.65056002  .00007578  00000-0  46462-3 0  9997
2 43790  97.4607 344.5587 0013300  92.9099 267.3653 15.10355232376149
ESEO
1 43792U 18099AL  25293.63268216  .00002937  00000-0  22109-3 0  9995
2 43792  97.4324 335.9733 0014396  72.9435 287.3367 15.03177733375808
JO-97
1 43803U 18099AX  25293.62399712  .00023148  00000-0  94101-3 0  9991
2 43803  97.4510 351.6839 0007679  49.2335 310.9568 15.24525236377011
Suomi 100
1 43804U 18099AY  25293.61127531  .00019034  00000-0  84743-3 0  9999
2 43804  97.4571 350.5383 0012461  49.9997 310.2331 15.21435799376906
ISAT
1 43879U 18111D   25293.55823215  .00045772  00000-0  12676-2 0  9994
2 43879  97.5884 211.3534 0011032  88.2452 272.0055 15.36775695374064
UWE-4
1 43880U 18111E   25293.55310112  .00033308  00000-0  11096-2 0  9990
2 43880  97.5828 208.7598 0013672  98.8811 261.3978 15.30953115373931
Sparrow
1 43881U 18111F   25293.28668122  .00054209  00000-0  14176-2 0  9993
2 43881  97.6056 214.5301 0009104 111.8542 248.3672 15.38529136374134
Prox-1
1 44339U 19036A   25293.59438509  .00020966  00000-0  24697-2 0  9999
2 44339  23.9966 266.2107 0007400 153.6162 206.4714 14.83229060337764
Taurus 1
1 44530U 19059C   25293.62475043  .00013931  00000-0  24404-2 0  9995
2 44530  98.6208  79.6131 0008692 341.8451  18.2441 14.67891334323441
Duchifat 3
1 44854U 19089C   25293.51890264  .00207299  00000-0  18245-2 0  9999
2 44854  36.9344 220.7697 0009814 262.8098  97.1549 15.67128105323702
TO-108
1 44881U 19093C   25293.64009547  .00002170  00000-0  25451-3 0  9993
2 44881  97.7817   6.4501 0014436 149.7950 210.4101 14.85919937315830
FloripaSat 1
1 44885U 19093G   25293.63699330  .00011489  00000-0  92135-3 0  9997
2 44885  97.8092  21.6106 0011064 134.1756 226.0378 15.00219942316686
RS-44
1 44909U 19096E   25293.61719082  .00000032  00000-0  86936-4 0  9997
2 44909  82.5192 138.9138 0217296 344.7902  14.6733 12.79744745271705
SALSAT
1 46495U 20068K   25293.60298301  .00013916  00000-0  55894-3 0  9998
2 46495  97.8745 278.0733 0012882  65.4082 294.8496 15.25003011278788
CSS (TIANHE-1)
1 48274U 21035A   25293.56770050  .00042045  00000-0  50045-3 0  9999
2 48274  41.4671 339.7631 0011453 250.2462 109.7142 15.60256545255721
TUBIN
1 48900U 21059X   25293.58896014  .00144969  00000-0  82376-3 0  9992
2 48900  97.6720 115.1096 0001782 101.9675 258.1791 15.78587575240876
CUTE
1 49263U 21088D   25293.21702657  .00049251  00000-0  75722-3 0  9991
2 49263  97.4405  13.8451 0007009 107.4986 252.7034 15.54069778224977
